GW4941 Weather Reports


Display with metric or nautical units.
time (UTC)temp
F
wind
direction
speed
MPH
gust
MPH
rain 1hr
in
rain 24hr
in
rain mn
in
humidity
%
barometer
mb
20260505034357 50 256 0.0 0.0 0.00 0.00 0.00 95 1010.8
20260505033854 50 256 0.0 0.0 0.00 0.00 0.00 95 1010.8
20260505033351 50 256 0.0 0.0 0.00 0.00 0.00 95 1010.8
20260505032849 50 256 0.0 0.0 0.00 0.00 0.00 95 1010.8
20260505032345 51 256 0.0 0.0 0.00 0.00 0.00 95 1010.8
20260505031842 51 256 0.0 0.0 0.00 0.00 0.00 95 1010.7
20260505031339 51 256 0.0 0.0 0.00 0.00 0.00 94 1010.8
20260505030836 51 256 0.0 0.0 0.00 0.00 0.00 94 1010.8
20260505030332 51 256 0.0 0.0 0.00 0.00 0.00 94 1010.8
20260505025828 51 256 0.0 0.0 0.00 0.00 0.00 94 1010.9
20260505025325 51 256 0.0 0.0 0.00 0.00 0.00 94 1010.8
20260505024824 51 256 0.0 0.0 0.00 0.00 0.00 93 1010.8
20260505024321 52 256 0.0 0.0 0.00 0.00 0.00 93 1011.0
20260505023818 52 256 0.0 0.0 0.00 0.00 0.00 93 1011.0
20260505023315 52 252 0.0 0.0 0.00 0.00 0.00 93 1010.9
20260505022812 52 252 0.0 0.0 0.00 0.00 0.00 92 1011.0
20260505022309 52 252 0.0 0.0 0.00 0.00 0.00 92 1010.9
20260505021806 52 252 0.0 0.0 0.00 0.00 0.00 92 1010.7
20260505021303 53 252 0.0 0.0 0.00 0.00 0.00 92 1010.6
20260505020759 53 252 0.0 0.0 0.00 0.00 0.00 91 1010.8
20260505020254 53 252 0.0 0.0 0.00 0.00 0.00 91 1010.6
20260505015752 53 252 0.0 0.0 0.00 0.00 0.00 91 1010.6
20260505015248 54 252 0.0 0.0 0.00 0.00 0.00 90 1010.8
20260505014746 54 252 0.0 0.0 0.00 0.00 0.00 90 1010.8
20260505014243 55 252 0.0 0.0 0.00 0.00 0.00 90 1010.9
20260505013739 55 252 0.0 0.0 0.00 0.00 0.00 89 1010.7
20260505013237 55 252 0.0 0.0 0.00 0.00 0.00 88 1010.8
20260505012735 55 252 0.0 0.0 0.00 0.00 0.00 88 1010.7
20260505012232 56 252 0.0 0.0 0.00 0.00 0.00 88 1010.7
20260505011727 56 251 0.0 0.0 0.00 0.00 0.00 87 1010.6
20260505011225 56 251 0.0 0.0 0.00 0.00 0.00 87 1010.7
20260505010720 56 251 0.0 0.0 0.00 0.00 0.00 86 1010.5
20260505010217 57 251 0.0 0.0 0.00 0.00 0.00 86 1010.6
20260505005713 57 251 0.0 0.0 0.00 0.00 0.00 85 1010.5
20260505005211 58 251 0.0 0.0 0.00 0.00 0.00 84 1010.5
20260505004707 58 251 0.0 0.0 0.00 0.00 0.00 83 1010.6
20260505004204 59 251 0.0 0.0 0.00 0.00 0.00 82 1010.6
20260505003701 60 251 0.0 0.0 0.00 0.00 0.00 80 1010.8
20260505003159 60 251 0.0 0.0 0.00 0.00 0.00 79 1010.9
20260505002655 61 251 1.0 1.0 0.00 0.00 0.00 78 1010.7
20260505002153 62 251 0.0 0.0 0.00 0.00 0.00 77 1010.8
20260505001649 62 251 0.0 1.0 0.00 0.00 0.00 75 1010.5
20260505001147 63 250 0.0 0.0 0.00 0.00 0.00 74 1010.8
20260505000644 63 248 0.0 1.0 0.00 0.00 0.00 73 1010.7
20260505000142 65 247 0.0 0.0 0.00 0.00 0.00 69 1010.7
20260504235638 65 247 0.0 1.0 0.00 0.00 0.00 68 1010.7
20260504235135 68 161 0.0 1.0 0.00 0.00 0.00 60 1010.6
20260504234632 70 119 0.0 0.0 0.00 0.00 0.00 55 1010.7
20260504234129 70 223 0.0 0.0 0.00 0.00 0.00 53 1010.8
20260504233625 72 223 0.0 0.0 0.00 0.00 0.00 52 1010.9
20260504233121 72 223 0.0 0.0 0.00 0.00 0.00 50 1010.9
20260504232619 71 222 0.0 0.0 0.00 0.00 0.00 55 1010.9
20260504232116 72 240 2.0 3.0 0.00 0.00 0.00 52 1010.8
20260504231613 73 242 2.0 2.0 0.00 0.00 0.00 47 1010.9
20260504231108 72 209 3.0 4.0 0.00 0.00 0.00 48 1010.9
20260504230604 72 234 2.0 2.0 0.00 0.00 0.00 51 1011.1
20260504230104 73 210 1.0 6.0 0.00 0.00 0.00 47 1011.0
20260504225601 73 25 0.0 2.0 0.00 0.00 0.00 48 1011.1
20260504225058 73 42 4.0 4.0 0.00 0.00 0.00 46 1011.1
20260504224554 72 265 3.0 3.0 0.00 0.00 0.00 48 1011.2
20260504224051 73 23 0.0 2.0 0.00 0.00 0.00 45 1010.9
20260504223548 72 344 1.0 4.0 0.00 0.00 0.00 46 1011.2
20260504223044 71 224 0.0 1.0 0.00 0.00 0.00 48 1011.1
20260504222541 71 234 3.0 4.0 0.00 0.00 0.00 49 1011.0
20260504222038 72 239 1.0 2.0 0.00 0.00 0.00 48 1010.7
20260504221536 72 30 0.0 2.0 0.00 0.00 0.00 47 1010.9
20260504221032 73 219 3.0 4.0 0.00 0.00 0.00 47 1011.0
20260504220529 73 135 0.0 6.0 0.00 0.00 0.00 46 1011.0
20260504220026 73 87 1.0 2.0 0.00 0.00 0.00 47 1010.9
20260504215522 73 293 1.0 2.0 0.00 0.00 0.00 45 1011.0
20260504215020 72 311 2.0 4.0 0.00 0.00 0.00 47 1011.2
20260504214516 72 201 2.0 3.0 0.00 0.00 0.00 47 1011.0
20260504214012 72 107 1.0 2.0 0.00 0.00 0.00 46 1010.9
20260504213508 72 165 1.0 2.0 0.00 0.00 0.00 47 1011.0
20260504213006 73 95 0.0 2.0 0.00 0.00 0.00 46 1011.0
20260504212501 73 211 1.0 3.0 0.00 0.00 0.00 45 1011.0
20260504211959 73 213 0.0 7.0 0.00 0.00 0.00 45 1011.0
20260504211455 74 64 6.0 9.0 0.00 0.00 0.00 44 1010.6
20260504210953 74 233 1.0 6.0 0.00 0.00 0.00 44 1010.5
20260504210450 74 212 0.0 7.0 0.00 0.00 0.00 47 1010.5
20260504205947 75 228 1.0 4.0 0.00 0.00 0.00 43 1010.6
20260504205444 73 196 4.0 7.0 0.00 0.00 0.00 47 1010.5
20260504204942 73 206 5.0 10.0 0.00 0.00 0.00 47 1010.7
20260504204440 73 182 4.0 8.0 0.00 0.00 0.00 48 1010.5
20260504203939 73 207 1.0 8.0 0.00 0.00 0.00 49 1010.9
20260504203437 73 226 2.0 7.0 0.00 0.00 0.00 49 1010.9
20260504202932 75 218 4.0 9.0 0.00 0.00 0.00 44 1010.7
20260504202429 74 234 3.0 4.0 0.00 0.00 0.00 45 1011.1
20260504201926 72 228 6.0 8.0 0.00 0.00 0.00 45 1011.0
20260504201423 71 54 1.0 1.0 0.00 0.00 0.00 48 1010.9
20260504200921 71 249 0.0 1.0 0.00 0.00 0.00 50 1011.2
20260504200417 71 224 1.0 3.0 0.00 0.00 0.00 50 1011.1
20260504195914 71 35 3.0 6.0 0.00 0.00 0.00 47 1011.3
20260504195410 71 278 2.0 8.0 0.00 0.00 0.00 49 1011.2
20260504194907 72 118 2.0 4.0 0.00 0.00 0.00 48 1011.2
20260504194402 73 220 6.0 9.0 0.00 0.00 0.00 45 1011.1
20260504193859 72 190 4.0 9.0 0.00 0.00 0.00 48 1011.2
20260504193356 72 206 2.0 4.0 0.00 0.00 0.00 47 1011.4
20260504192855 72 63 2.0 4.0 0.00 0.00 0.00 46 1011.2
20260504192352 73 120 1.0 6.0 0.00 0.00 0.00 46 1011.4
20260504191850 73 236 3.0 7.0 0.00 0.00 0.00 44 1011.7
20260504191348 73 221 3.0 4.0 0.00 0.00 0.00 49 1011.3
20260504190843 72 211 4.0 9.0 0.00 0.00 0.00 45 1011.6
20260504190339 72 239 1.0 8.0 0.00 0.00 0.00 44 1011.6
20260504185836 74 131 5.0 6.0 0.00 0.00 0.00 42 1011.4
20260504185333 73 235 5.0 8.0 0.00 0.00 0.00 43 1011.4
20260504184829 73 9 3.0 7.0 0.00 0.00 0.00 43 1011.4
20260504184325 73 51 6.0 7.0 0.00 0.00 0.00 43 1011.3
20260504183821 73 247 2.0 8.0 0.00 0.00 0.00 44 1011.2
20260504183318 71 225 5.0 10.0 0.00 0.00 0.00 43 1011.4
20260504182816 74 223 6.0 8.0 0.00 0.00 0.00 42 1011.7
20260504182313 73 244 2.0 6.0 0.00 0.00 0.00 44 1011.7
20260504181810 72 21 2.0 6.0 0.00 0.00 0.00 44 1011.8
20260504181308 71 202 4.0 10.0 0.00 0.00 0.00 44 1011.9
20260504180807 72 177 2.0 8.0 0.00 0.00 0.00 45 1011.7
20260504180305 72 208 2.0 6.0 0.00 0.00 0.00 48 1012.0
20260504175802 71 26 5.0 7.0 0.00 0.00 0.00 47 1012.1
20260504175259 72 262 4.0 6.0 0.00 0.00 0.00 48 1012.0
20260504174757 71 226 2.0 7.0 0.00 0.00 0.00 48 1012.1
20260504174254 71 222 5.0 11.0 0.00 0.00 0.00 46 1012.1
20260504173750 69 70 5.0 7.0 0.00 0.00 0.00 49 1012.2
20260504173248 69 78 2.0 7.0 0.00 0.00 0.00 52 1012.5
20260504172744 69 290 3.0 15.0 0.00 0.00 0.00 50 1012.5
20260504172241 69 237 3.0 10.0 0.00 0.00 0.00 49 1012.6
20260504171737 70 97 2.0 8.0 0.00 0.00 0.00 49 1012.7
20260504171234 68 242 7.0 13.0 0.00 0.00 0.00 51 1013.0
20260504170732 68 208 5.0 10.0 0.00 0.00 0.00 50 1012.9
20260504170229 67 211 4.0 10.0 0.00 0.00 0.00 52 1013.0
20260504160147 65 100 0.0 7.0 0.00 0.00 0.00 55 1014.1
20260504151114 62 109 0.0 6.0 0.00 0.00 0.00 54 1014.7
20260504150612 63 213 3.0 6.0 0.00 0.00 0.00 53 1014.5
20260504150109 63 99 2.0 6.0 0.00 0.00 0.00 55 1014.8
20260504141037 62 178 1.0 8.0 0.00 0.00 0.00 53 1014.4
20260504140534 61 42 3.0 4.0 0.00 0.00 0.00 51 1014.7
20260504130458 55 79 3.0 3.0 0.00 0.00 0.00 64 1014.6
20260504110345 42 344 0.0 1.0 0.00 0.00 0.00 95 1014.8
20260504100303 45 341 0.0 0.0 0.00 0.00 0.00 94 1015.2
20260504081656 46 341 0.0 0.0 0.00 0.00 0.00 88 1015.7
20260504081152 46 341 0.0 0.0 0.00 0.00 0.00 89 1016.2
20260504080649 46 341 0.0 0.0 0.00 0.00 0.00 88 1015.9
20260504080145 46 341 0.0 0.0 0.00 0.00 0.00 88 1016.0
20260504070114 46 349 0.0 0.0 0.00 0.00 0.00 85 1015.9
20260504050502 44 303 0.0 0.0 0.00 0.00 0.00 84 1016.5
20260504045959 45 303 0.0 0.0 0.00 0.00 0.00 83 1016.5
20260504045455 46 303 0.0 0.0 0.00 0.00 0.00 82 1016.5
20260504044951 46 303 0.0 0.0 0.00 0.00 0.00 80 1016.5
20260504044449 46 303 0.0 0.0 0.00 0.00 0.00 81 1016.5
20260504043946 46 303 0.0 0.0 0.00 0.00 0.00 82 1016.4
20260504043443 46 303 0.0 0.0 0.00 0.00 0.00 82 1016.5
20260504042940 47 303 0.0 0.0 0.00 0.00 0.00 83 1016.6
20260504042437 46 303 0.0 0.0 0.00 0.00 0.00 80 1016.5
20260504041933 47 303 0.0 0.0 0.00 0.00 0.00 81 1016.6
20260504041429 47 303 0.0 0.0 0.00 0.00 0.00 81 1016.6
20260504040925 47 303 0.0 0.0 0.00 0.00 0.00 80 1016.6
20260504040424 47 303 0.0 0.0 0.00 0.00 0.00 80 1016.7
20260504035919 47 303 0.0 0.0 0.00 0.00 0.00 79 1016.6
20260504035417 47 303 0.0 0.0 0.00 0.00 0.00 78 1016.8
20260504034913 48 303 0.0 0.0 0.00 0.00 0.00 78 1016.5